Погода в Матере

Италия     40°40′37″N   16°35′25″E
темп.,
°C
ветер,
м/с
пор.,
м/с
влажн.,
%
обл.,
%
осадки,
мм/ч
давл.,
гПа
погр.,
м
28 сентября, вт
вт2823:00+20зсз227899 1.9 101740
02:00+19ссз38866 2.2 1017242
05:00+19ссз379159 0.0 1016359
08:00+20ссз478499 0.1 1017552
11:00+24ссз455975 0.0 10171230
14:00+25ссз455198 0.4 10161636
17:00+24сз4656100 0.1 1016895
20:00+21сз58600 0.1 1017382
29 сентября, ср
ср2923:00+19сз48704 0.0 1018228
02:00+18сз35711 0.0 1018111
05:00+17сз236822 0.0 101746
08:00+18сз226029 0.0 101774
11:00+24зсз1141100 0.0 1017671
14:00+27сз1231100 0.0 10161451
17:00+27св323070 0.0 10151606
20:00+22вюв245391 0.0 1017128
30 сентября, чт
чт3023:00+22юв125660 0.0 1018165
02:00+20с006819 0.0 101811
05:00+19ссв226875 0.0 101815
08:00+19св1270100 0.1 1019119
11:00+23ссв115188 0.0 10201022
14:00+25ссв224498 0.1 10191811
17:00+24ссв445293 0.6 10181067
20:00+20с467422 5.6 1021295
1 октября, пт
пт123:00+18сз478281 0.7 1022461
02:00+17сз47844 0.8 1022361
05:00+17ссз368577 0.0 1022358
08:00+17сз35822 0.0 1022293
11:00+21ссз336178 0.0 10221172
14:00+22ссз3355100 0.1 10211396
17:00+20ссв446290 0.0 1021812
20:00+18ссв357521 0.0 1021299
2 октября, сб
сб223:00+16с22860 0.0 102130
02:00+16ссв11890 0.0 102118
05:00+15ссв11922 0.0 102015
08:00+16ссв11881 0.0 102082
11:00+21вюв11617 0.0 1020944
14:00+24ю22447 0.0 10181761
17:00+24вюв224251 0.0 10171561
20:00+19юв35584 0.0 1019163